GFSNIL_sfc_thetae_015.txt.gz
Theta_e
285 285 285 285 285 286 286 287 288 288 287 287 288 289 290 289 287 287 288 291 290 291
284 283 282 282 283 283 284 286 286 286 286 286 286 286 287 286 286 286 286 287 288 290
284 284 282 281 281 281 282 283 283 284 284 285 285 285 284 284 284 284 285 286 285 286
282 283 282 281 281 281 281 281 282 282 282 283 283 283 283 283 284 283 284 284 284 285
282 282 281 281 280 280 279 280 280 281 281 282 282 282 282 283 284 283 284 284 284 284
280 279 279 279 280 280 280 279 279 279 279 280 281 281 282 282 283 283 284 285 285 285
278 278 278 279 278 279 279 278 278 278 279 279 280 280 281 282 282 282 283 284 285 285
278 279 279 278 279 278 278 278 278 277 277 277 277 278 279 280 280 281 282 283 284 284
278 279 279 278 278 278 278 277 277 277 277 276 277 280 281 281 279 279 280 280 282 283
276 276 276 277 276 275 275 275 275 275 275 275 275 279 280 280 278 277 277 278 280 281
274 273 273 273 272 272 272 272 272 272 272 272 273 277 278 278 276 275 276 276 278 279
271 269 269 268 268 268 268 268 268 269 268 268 268 273 273 273 271 272 272 274 275 276
269 266 266 266 265 265 265 265 266 265 265 265 264 269 270 271 269 268 269 270 272 275
266 264 264 263 264 263 262 263 262 262 263 263 264 264 269 270 269 268 268 269 270 273

GFSNIL_sfc_thetae_018.txt.gz
Theta_e
282 282 282 282 282 282 282 283 284 284 284 284 285 285 286 285 285 286 285 286 287 289
282 282 281 281 281 281 281 283 282 282 282 282 283 282 283 283 283 283 284 284 285 286
282 282 281 280 280 279 280 280 280 280 281 281 281 281 281 280 281 282 282 284 283 283
281 280 280 280 279 279 279 279 279 280 280 280 280 280 280 280 280 280 281 282 282 282
279 279 279 278 279 279 279 279 279 279 278 278 278 279 279 279 279 279 280 281 281 282
278 278 278 278 278 278 278 278 278 278 277 278 278 278 278 278 278 279 280 280 280 281
277 278 278 278 277 277 277 277 277 277 277 277 277 277 277 277 277 278 279 280 280 281
278 278 277 277 277 277 277 277 276 276 276 276 276 277 277 278 277 277 277 278 279 279
276 276 276 276 276 275 275 274 274 274 274 274 275 278 279 279 276 276 276 276 277 278
274 274 274 273 273 272 271 272 271 271 271 271 272 275 276 277 275 274 274 274 275 276
272 270 270 270 269 269 269 269 268 268 268 268 269 273 273 273 272 271 271 271 272 272
269 267 268 265 266 267 266 266 265 266 266 265 265 270 271 271 269 269 269 270 270 270
268 263 264 265 264 264 264 264 265 264 264 264 262 267 269 270 268 266 267 268 270 272
265 263 263 262 263 262 261 262 261 261 262 262 263 263 268 270 269 267 266 266 268 270

GFSNIL_sfc_thetae_021.txt.gz
Theta_e
281 280 280 280 280 280 280 280 281 281 281 281 281 282 282 281 281 282 282 283 283 285
281 280 279 279 279 279 279 281 280 279 279 280 280 280 279 279 279 280 280 281 282 282
280 280 279 278 278 278 278 279 279 278 278 279 279 279 278 279 279 278 278 280 280 280
279 279 279 278 278 278 278 278 278 278 278 277 277 277 277 277 278 277 278 278 278 279
278 278 278 277 278 278 277 278 278 278 278 277 277 277 276 276 276 276 276 277 278 278
278 277 277 277 278 278 277 277 277 277 276 276 276 276 276 276 276 276 277 277 277 278
277 277 277 277 276 276 276 275 275 275 275 275 275 275 276 276 276 277 277 277 277 277
277 277 276 275 275 275 274 274 274 273 273 273 274 275 275 275 275 275 275 275 276 277
275 275 274 274 273 273 272 272 272 271 271 271 272 275 276 276 274 274 273 273 274 274
273 272 272 271 271 270 269 270 269 269 269 268 269 273 274 275 272 271 271 271 271 272
271 269 269 268 268 268 268 267 267 267 266 266 268 272 272 273 271 270 270 269 270 270
268 266 267 264 265 265 265 265 264 265 265 264 264 269 271 271 269 268 268 269 269 269
267 263 262 264 263 264 262 264 264 264 264 263 262 267 269 270 268 266 267 268 269 271
265 262 262 261 262 261 260 262 260 261 261 261 262 263 269 271 269 268 267 267 268 270

GFSNIL_sfc_thetae_024.txt.gz
Theta_e
280 280 279 279 278 278 278 278 278 278 278 278 279 279 278 278 278 278 279 278 279 282
279 279 278 278 278 278 278 280 278 278 277 277 278 278 277 277 277 277 277 277 278 279
279 279 278 278 278 277 278 278 278 278 277 277 277 277 276 276 277 276 276 277 277 277
278 277 277 277 277 277 277 277 277 277 277 277 276 276 275 275 276 275 275 276 276 277
277 277 277 276 277 277 277 277 277 277 277 276 276 276 275 275 275 274 275 275 276 276
277 277 276 277 277 277 276 276 276 275 274 274 274 274 274 275 275 275 275 276 276 276
277 276 276 276 276 275 275 274 273 273 273 273 273 273 274 275 274 274 274 275 275 275
277 276 275 274 274 273 273 273 272 272 271 272 272 273 274 274 273 273 273 273 274 274
275 275 273 273 272 272 271 271 270 270 269 269 271 274 275 275 273 272 271 271 271 272
272 272 271 270 270 270 269 269 268 268 268 267 268 273 274 274 272 271 270 270 270 270
270 269 269 268 267 267 267 266 266 266 266 266 267 272 273 273 271 269 269 269 269 269
268 266 266 263 264 265 264 264 263 265 264 263 264 269 271 271 269 269 268 269 269 269
267 263 262 264 263 263 261 264 264 264 263 263 262 267 270 271 269 267 268 268 269 272
265 262 262 261 261 259 258 262 259 260 261 261 262 262 269 271 270 269 268 269 270 271

GFSNIL_sfc_thetae_027.txt.gz
Theta_e
282 282 281 281 281 281 281 280 281 280 280 280 280 280 280 280 281 281 281 280 281 281
281 281 280 280 280 280 280 280 280 280 279 279 279 279 279 279 279 279 279 280 280 280
280 280 280 280 279 279 279 280 279 279 279 279 279 279 278 278 278 278 278 279 278 279
279 279 279 279 279 279 279 279 279 278 278 278 277 278 277 277 278 277 277 278 278 278
279 279 279 279 279 279 278 278 278 277 277 276 276 276 276 276 276 276 276 277 277 277
279 278 278 278 278 278 277 277 276 276 275 275 275 275 275 276 275 275 275 275 275 275
278 278 278 278 277 276 276 275 274 274 274 273 273 274 275 275 275 275 275 275 275 274
279 278 277 276 275 274 274 273 273 272 272 272 272 274 275 275 275 274 273 273 273 273
278 276 275 274 274 273 272 271 271 270 270 269 271 273 276 276 274 273 272 271 272 272
275 275 273 272 271 271 270 269 269 269 268 268 268 273 275 275 273 272 271 270 270 270
273 272 270 269 269 268 268 268 267 267 267 267 268 272 273 274 272 271 270 270 270 270
271 269 268 266 267 267 266 266 265 267 265 265 265 269 272 273 271 270 269 270 271 270
269 266 265 266 265 265 264 266 265 265 264 263 263 267 270 272 271 269 270 271 271 273
267 265 265 263 264 262 262 263 260 262 262 262 263 264 270 272 271 271 270 271 271 272

GFSNIL_sfc_thetae_030.txt.gz
Theta_e
288 287 287 287 286 286 285 285 285 285 284 284 284 284 284 284 283 284 284 283 284 283
286 286 285 285 286 285 285 284 284 284 284 284 283 283 283 283 283 283 283 283 283 282
286 286 285 285 285 284 284 284 284 283 283 283 283 282 283 283 283 282 283 282 282 282
285 285 285 285 285 284 284 283 283 282 282 281 281 281 281 281 281 280 281 281 281 281
285 285 285 284 284 284 283 282 282 281 280 280 279 279 279 279 279 279 279 279 279 279
284 284 284 284 283 283 282 281 280 279 279 278 278 278 278 278 278 278 278 278 278 278
284 284 284 283 282 281 280 279 278 278 277 277 277 276 277 278 278 278 278 278 277 277
284 284 283 282 281 279 278 278 277 277 276 275 275 276 277 278 278 277 277 277 276 276
283 282 281 280 278 277 277 276 275 275 274 273 274 274 276 277 276 276 275 274 275 275
282 281 280 278 277 276 275 275 274 273 273 272 273 273 275 276 275 275 275 273 273 273
281 280 278 276 275 275 274 273 273 272 272 272 272 272 274 275 275 274 274 273 273 272
280 278 276 274 274 273 273 272 272 271 271 270 270 271 273 273 274 273 273 273 273 273
279 276 274 274 272 273 272 271 271 270 270 268 267 269 271 273 274 272 273 274 274 275
276 274 273 272 271 270 269 269 268 267 268 267 267 268 271 273 273 273 273 274 274 274

GFSNIL_sfc_thetae_036.txt.gz
Theta_e
287 285 285 285 284 283 282 282 282 282 282 281 282 282 282 280 280 280 279 279 279 279
285 284 284 284 283 282 282 283 282 282 281 281 281 281 281 279 279 279 279 279 279 279
284 284 284 283 282 282 281 281 281 281 280 280 279 279 279 278 278 278 278 278 278 277
283 283 283 282 282 281 281 281 280 280 279 279 278 278 277 277 277 277 277 277 277 277
282 282 282 281 281 281 280 280 279 279 279 278 278 277 277 277 277 276 276 277 276 276
281 281 281 281 281 281 280 279 278 278 277 277 277 277 277 277 277 277 277 277 276 276
280 281 281 280 280 280 279 278 277 277 277 277 276 276 276 276 276 276 277 277 277 276
281 281 281 280 279 279 278 278 277 276 276 276 275 276 275 276 276 276 276 276 276 276
281 281 280 280 279 278 277 277 276 275 275 274 276 278 278 277 276 276 276 275 275 275
281 280 279 279 278 277 276 276 275 274 274 274 274 278 279 278 277 275 275 275 275 275
280 279 277 277 276 275 275 274 274 273 273 273 274 278 279 278 275 274 274 274 274 274
279 277 277 276 275 275 274 273 272 272 271 271 271 278 278 277 273 273 273 275 274 274
278 277 277 276 274 274 272 274 273 273 271 270 267 276 277 277 273 267 272 273 275 277
278 278 277 275 272 272 270 272 269 270 268 267 268 269 276 277 274 271 270 271 272 274

GFSNIL_sfc_thetae_039.txt.gz
Theta_e
286 285 285 284 283 282 282 281 281 281 281 280 281 281 280 279 279 279 278 278 278 279
285 285 284 283 282 282 281 282 281 280 280 280 280 280 279 278 278 278 278 278 278 278
284 284 284 283 281 281 281 281 280 279 279 279 279 279 279 277 277 277 277 277 277 276
283 283 283 282 281 280 280 280 280 279 279 278 278 278 277 277 277 277 276 276 276 276
282 282 281 281 280 280 280 280 279 279 278 278 277 277 277 276 276 276 276 276 276 275
281 280 280 280 280 279 279 278 278 278 277 277 277 277 276 277 276 276 276 276 276 275
280 280 280 280 280 279 279 278 277 277 277 277 276 276 276 276 276 276 276 277 276 276
280 280 280 280 279 279 279 277 277 276 276 276 276 276 275 276 276 276 275 276 276 276
280 280 280 280 280 279 278 277 276 275 275 274 276 280 281 277 276 276 276 275 275 275
280 280 280 280 279 278 277 276 275 274 274 274 274 281 281 281 276 276 275 275 275 275
281 280 279 279 277 276 275 275 274 274 274 274 274 280 282 281 276 275 274 274 274 274
281 280 278 277 276 275 275 273 273 273 272 272 272 280 281 280 274 274 273 274 274 274
280 279 278 278 275 272 273 275 274 274 272 271 270 278 280 279 274 267 272 272 274 276
279 278 278 276 273 271 273 272 270 271 270 270 270 270 279 280 275 272 269 270 271 273

GFSNIL_sfc_thetae_042.txt.gz
Theta_e
285 285 284 283 283 282 281 281 280 280 280 280 280 280 279 279 279 278 278 278 278 278
285 284 283 282 282 281 280 281 280 280 279 279 279 279 279 278 278 277 278 277 278 278
285 284 283 282 280 280 280 280 279 279 279 279 279 279 278 277 277 277 276 277 276 276
283 283 282 281 281 280 280 279 279 279 279 279 278 278 277 277 277 277 276 276 276 276
283 282 281 281 280 280 280 279 279 279 278 278 278 277 276 276 276 276 276 276 276 275
281 281 281 280 280 280 279 279 279 279 278 277 277 277 277 277 277 276 276 276 276 275
281 281 281 280 279 280 279 279 278 278 278 277 277 277 277 277 276 276 276 277 276 276
281 281 280 280 280 280 279 279 278 277 277 277 276 277 276 276 276 275 275 276 276 276
281 280 280 280 280 279 279 277 277 277 276 275 277 280 282 278 276 276 275 275 275 275
281 281 280 280 280 279 278 278 277 276 275 274 275 282 283 283 276 275 275 275 275 275
281 281 280 279 279 278 278 277 276 275 275 274 275 281 283 283 276 275 275 274 274 274
281 281 279 279 279 278 278 276 275 275 273 274 273 281 283 282 275 275 274 274 274 273
282 282 280 280 279 278 278 277 276 275 274 273 271 279 282 282 275 270 273 273 274 276
282 282 281 281 279 276 276 274 273 273 271 271 271 271 281 283 275 274 271 271 272 273

GFSNIL_sfc_thetae_045.txt.gz
Theta_e
289 288 287 285 284 283 282 281 280 280 280 280 280 280 279 279 279 278 278 278 278 278
288 287 285 282 282 281 280 281 279 280 279 279 279 279 279 279 278 278 278 278 278 278
286 285 284 282 281 280 280 280 279 279 279 279 279 279 279 278 277 277 277 277 277 277
283 284 283 282 281 280 280 279 279 279 279 279 279 278 278 277 277 277 277 276 276 276
283 282 281 281 280 280 280 279 279 279 279 279 279 278 277 277 277 276 276 276 276 275
282 281 281 280 280 280 279 279 279 279 279 279 278 278 277 277 277 277 277 276 276 275
281 282 281 280 280 280 279 279 279 279 278 278 278 278 278 277 277 276 277 277 276 275
282 282 281 280 280 280 279 279 279 278 278 278 278 278 278 277 276 276 275 276 276 276
281 281 281 280 280 280 279 279 279 278 278 277 278 282 283 278 276 276 275 274 275 275
281 281 281 280 280 279 279 279 278 278 277 277 277 283 284 283 276 276 275 275 275 275
281 281 280 280 279 279 279 278 278 277 277 277 277 283 284 285 276 275 275 275 275 274
282 281 280 280 279 279 278 278 277 278 277 277 277 282 284 283 277 276 275 275 274 274
282 282 280 280 279 279 279 279 278 278 278 277 277 281 284 283 277 274 275 275 275 277
282 282 281 281 280 279 279 278 277 277 277 276 275 275 283 284 277 277 274 274 273 274

GFSNIL_sfc_thetae_051.txt.gz
Theta_e
299 296 296 295 294 292 291 289 286 286 285 284 284 284 284 285 284 285 284 284 284 283
296 296 295 294 292 291 289 288 285 285 284 283 283 283 284 283 283 284 283 283 283 282
294 293 293 291 289 286 285 284 283 283 283 282 283 282 283 282 282 283 282 282 282 281
293 291 290 289 289 286 285 283 283 282 282 282 281 281 282 282 281 281 281 281 281 280
290 290 288 289 287 285 284 283 283 281 282 281 281 281 281 280 281 280 280 280 279 279
288 288 288 288 286 284 284 282 282 281 281 281 281 281 281 281 281 281 280 280 279 278
287 287 287 286 285 284 283 282 281 281 281 281 281 281 281 280 280 280 280 279 279 279
287 286 286 285 284 284 282 282 281 281 280 281 280 280 280 280 280 279 279 278 279 279
285 284 285 284 283 282 281 281 280 280 280 280 280 284 284 281 279 279 278 277 278 278
284 283 283 283 282 281 280 280 280 280 279 279 280 285 285 283 279 279 278 278 278 277
283 283 282 281 281 281 280 280 279 279 279 279 280 286 286 284 279 279 278 279 278 277
283 281 281 280 281 281 280 280 280 280 279 279 279 285 286 284 279 279 279 279 277 277
282 281 280 281 280 281 281 280 279 279 279 279 279 285 286 285 282 281 279 278 277 279
281 280 280 280 280 280 279 279 279 279 279 279 280 282 286 287 283 283 281 280 279 278

GFSNIL_sfc_thetae_054.txt.gz
Theta_e
310 310 308 306 308 306 305 303 302 296 293 291 294 299 300 299 298 297 296 293 291 290
308 306 305 304 304 304 305 301 296 293 291 289 290 295 296 296 293 292 292 291 290 289
305 305 304 302 301 301 299 296 292 289 288 287 288 292 292 291 290 289 289 288 287 286
304 304 303 301 299 297 294 293 291 287 286 285 286 288 289 289 288 288 286 287 286 285
302 302 301 298 296 294 292 291 290 285 284 284 285 284 288 287 286 286 285 285 284 283
300 300 299 298 295 293 293 290 288 285 284 283 283 283 285 286 286 286 286 285 284 282
298 298 298 297 294 291 291 288 285 285 283 283 282 282 283 284 285 285 284 284 283 282
297 297 297 295 291 289 288 286 285 283 282 282 282 281 282 282 283 283 282 282 281 282
295 293 291 290 288 286 286 284 283 282 281 281 281 284 285 283 281 281 281 280 280 281
290 288 288 288 287 285 284 283 281 281 281 281 281 285 286 284 281 281 281 280 280 280
288 287 287 286 285 285 284 282 281 281 281 281 281 286 286 283 281 282 281 281 282 282
287 286 286 285 285 284 283 282 282 281 281 280 281 286 286 283 281 281 280 282 282 282
286 285 284 285 284 285 284 282 280 280 281 280 282 286 286 284 281 280 281 282 281 281
285 284 285 285 285 283 282 280 279 279 280 280 283 285 286 286 282 282 282 284 282 281

GFSNIL_sfc_thetae_057.txt.gz
Theta_e
312 312 313 312 313 310 308 306 304 301 301 303 304 304 303 301 300 298 298 298 296 293
311 312 312 311 313 313 313 311 309 305 303 301 299 300 301 299 298 297 297 296 294 291
309 311 311 311 310 310 309 308 306 303 299 295 295 296 296 294 296 294 295 292 290 288
308 309 309 308 308 307 307 304 299 297 295 292 291 292 293 291 291 290 290 289 288 286
306 307 306 306 306 306 303 300 298 296 293 292 289 289 290 288 288 288 286 287 286 284
304 304 305 305 305 303 300 295 293 291 289 289 287 285 287 287 286 286 285 286 284 283
302 303 303 304 302 300 297 292 291 288 288 288 286 284 285 284 285 285 285 284 284 283
301 302 302 300 299 297 294 292 290 287 286 285 284 283 283 283 283 283 282 282 282 282
298 297 296 296 293 290 289 288 286 285 284 283 282 286 287 284 282 282 281 280 280 282
293 292 292 291 289 288 287 286 284 284 283 283 282 286 287 286 282 281 281 280 281 282
290 289 289 288 287 287 287 284 284 283 282 282 282 286 287 285 282 281 281 281 281 283
289 287 287 286 286 286 285 284 283 283 282 282 281 286 287 283 282 281 280 282 283 284
288 286 285 286 285 285 285 283 282 281 282 281 282 286 286 283 282 280 280 281 283 284
286 285 285 285 285 284 282 281 281 280 280 281 284 285 287 286 282 282 280 280 282 283

GFSNIL_sfc_thetae_060.txt.gz
Theta_e
308 308 308 307 308 308 306 306 306 304 305 305 305 304 303 300 299 299 297 296 295 295
306 306 306 306 306 307 306 306 303 303 302 302 303 303 302 300 298 298 297 297 295 291
304 305 305 305 304 305 306 306 304 301 302 301 301 302 301 299 298 297 297 296 293 288
302 303 304 304 303 303 302 301 300 300 300 297 296 296 298 295 295 295 293 290 289 286
301 301 302 302 302 301 300 297 296 293 291 290 290 292 294 292 294 292 290 288 286 285
299 299 300 300 300 300 298 295 292 291 290 287 289 288 292 291 291 291 290 288 286 285
297 299 299 299 299 298 296 291 289 288 289 287 287 286 288 287 288 288 287 286 286 284
296 297 297 296 294 293 291 290 288 286 285 285 285 285 285 286 285 285 284 283 283 282
294 292 291 291 291 289 288 287 285 284 285 284 284 288 289 286 284 284 283 281 281 282
288 288 289 289 288 286 285 284 283 283 284 283 283 287 288 287 283 283 283 281 282 282
287 285 284 285 285 284 284 282 281 281 283 282 282 287 288 286 282 282 282 282 282 282
283 282 283 281 281 281 281 279 278 283 282 282 282 287 288 284 282 281 281 282 282 283
282 280 280 281 280 279 278 282 282 282 282 282 282 286 287 284 282 280 280 281 282 284
280 279 280 279 278 277 277 281 280 280 280 281 282 285 287 285 282 281 280 280 281 283

GFSNIL_sfc_thetae_063.txt.gz
Theta_e
305 306 307 304 306 307 307 306 306 308 310 312 311 309 307 303 302 300 299 299 298 298
305 305 306 304 304 307 306 305 305 307 307 308 307 307 306 304 301 300 299 298 297 297
304 305 306 304 304 303 305 303 302 304 305 305 305 304 303 301 300 299 299 299 296 295
301 302 303 304 304 302 301 303 301 300 302 302 301 301 301 301 300 297 298 297 296 295
299 300 300 301 301 300 301 299 301 299 298 299 300 299 300 298 298 296 295 295 293 293
298 298 299 300 299 299 298 297 294 294 294 292 293 294 297 298 295 295 295 294 292 291
297 298 299 298 298 297 296 295 292 291 291 289 288 290 291 292 293 292 293 292 291 288
296 296 296 294 293 293 292 293 290 288 287 287 286 288 288 288 289 289 289 287 287 286
293 291 291 290 290 290 289 288 287 286 285 284 287 290 290 288 286 286 285 284 283 283
288 288 289 289 288 288 287 285 285 284 284 283 284 289 290 289 284 284 284 283 282 282
285 284 283 283 285 286 284 283 282 281 281 281 282 288 289 288 283 283 283 283 283 283
284 281 281 280 280 281 279 278 278 279 280 283 282 288 288 287 282 282 281 282 283 283
281 278 278 280 278 278 277 279 281 282 283 282 282 287 288 285 282 280 280 281 282 283
279 277 278 276 276 275 278 281 281 280 280 281 282 284 288 285 282 281 280 280 281 283

GFSNIL_sfc_thetae_066.txt.gz
Theta_e
306 307 308 305 306 306 307 308 307 307 309 312 313 313 312 309 306 304 303 302 299 300
303 304 306 304 305 306 306 306 302 305 305 306 308 311 311 308 305 304 302 301 300 299
301 303 304 303 303 304 303 303 301 302 303 305 307 308 308 307 305 303 302 301 300 299
299 300 301 302 303 302 301 301 302 301 304 304 305 305 305 305 304 300 300 300 298 297
298 298 299 300 301 299 300 298 301 298 301 302 302 302 302 301 301 298 297 297 297 296
297 297 298 299 298 297 298 297 296 295 297 298 299 299 299 301 300 298 298 298 296 296
296 298 298 297 296 296 296 295 294 292 295 294 295 295 296 296 295 295 295 295 295 294
296 295 295 294 293 292 292 293 293 291 289 289 288 290 289 290 291 292 292 290 290 290
290 290 290 289 289 289 289 289 288 288 288 287 289 291 292 290 288 288 288 288 286 286
285 285 287 288 288 288 288 287 286 286 285 285 285 290 292 291 286 286 286 286 284 284
287 286 284 284 284 286 285 283 283 281 281 281 282 289 290 290 285 284 284 284 284 284
283 285 282 282 281 280 279 278 277 279 280 283 283 287 289 288 283 283 283 283 283 283
282 282 280 280 278 277 276 278 281 283 283 283 283 286 288 286 282 281 281 281 282 283
279 278 277 276 276 274 276 281 281 281 281 281 282 284 288 285 282 281 280 281 281 283

GFSNIL_sfc_thetae_069.txt.gz
Theta_e
307 308 310 307 307 306 307 307 306 307 314 317 316 315 313 310 307 306 305 304 304 301
302 303 305 304 303 305 303 303 303 303 305 307 311 314 313 312 309 306 304 304 303 302
300 301 302 302 301 302 302 301 300 301 302 302 304 305 307 310 309 307 305 304 303 302
297 298 299 299 301 301 300 300 301 301 301 301 301 302 305 306 306 304 303 303 301 300
297 297 297 297 299 299 299 298 300 299 299 300 302 304 303 303 303 303 300 301 299 299
296 296 296 297 297 297 297 296 296 295 296 299 302 302 302 303 302 301 300 300 298 298
294 295 295 295 295 295 295 294 293 293 295 294 298 299 299 299 298 298 298 298 297 296
292 292 292 291 290 290 289 291 292 291 289 290 291 295 294 293 294 294 294 291 291 292
286 286 286 287 287 287 288 288 288 288 287 287 289 292 294 293 290 289 289 289 288 288
285 285 286 285 285 286 287 286 286 286 286 285 286 291 293 292 288 287 287 287 287 285
284 283 283 284 284 284 285 283 282 282 282 281 282 289 291 291 286 285 285 285 285 285
282 282 282 281 281 281 279 278 277 279 276 277 284 287 289 289 285 284 283 284 284 284
281 281 283 282 280 278 275 278 278 280 283 283 284 286 288 287 283 282 281 282 282 283
278 277 278 277 275 273 273 276 275 278 280 281 282 283 288 286 283 282 281 281 281 282

GFSNIL_sfc_thetae_072.txt.gz
Theta_e
308 309 308 308 306 306 306 306 306 306 311 317 319 316 315 312 310 309 306 306 306 304
301 302 304 304 303 304 303 303 303 303 304 306 311 315 315 312 309 307 306 305 305 304
298 298 299 300 300 300 301 300 300 300 301 301 302 305 310 311 311 309 307 305 304 304
296 296 297 297 298 298 298 298 298 299 299 299 300 299 302 305 307 307 306 306 303 302
295 295 295 296 297 297 297 297 298 297 297 298 299 299 299 301 303 303 303 303 303 301
294 293 293 294 294 295 295 294 294 294 294 295 297 298 300 303 302 302 303 302 300 301
291 291 291 291 292 291 292 291 292 292 292 292 294 295 299 300 299 299 300 300 300 298
289 289 288 288 288 288 288 289 289 289 288 288 289 292 295 295 296 295 296 294 293 293
286 285 285 285 285 285 286 286 287 287 286 286 289 292 294 294 291 290 290 291 290 289
284 283 284 284 284 284 284 285 285 285 285 284 285 291 292 292 290 289 289 288 287 287
282 282 281 281 281 283 283 283 283 282 282 281 283 289 291 291 288 287 286 286 286 286
282 281 281 281 281 280 280 279 279 279 279 276 280 288 289 289 286 285 284 284 284 284
280 279 279 280 280 277 275 279 279 279 275 276 282 286 287 288 284 283 282 282 282 283
278 277 277 277 276 276 275 276 275 275 274 275 280 282 286 289 283 282 281 281 281 282

GFSNIL_sfc_thetae_078.txt.gz
Theta_e
316 318 317 317 317 318 319 319 319 318 319 319 320 319 321 319 318 316 314 313 313 312
307 307 307 308 309 310 310 309 309 311 311 313 313 314 315 316 314 315 314 313 313 312
304 305 305 305 305 305 306 306 306 307 307 308 309 309 310 311 313 313 313 312 311 310
301 302 302 302 302 302 303 302 302 303 303 304 305 306 306 307 307 307 309 311 309 308
299 299 299 298 298 299 299 299 299 299 299 300 301 302 302 303 304 304 304 305 304 304
296 296 295 296 296 296 296 296 297 297 296 297 298 298 299 300 300 301 302 302 302 302
294 293 293 294 293 294 294 294 294 295 295 295 295 295 296 297 297 298 299 300 300 300
293 292 292 292 292 292 292 292 292 292 292 293 293 294 294 294 295 294 294 295 296 297
290 289 289 289 289 289 289 289 289 289 290 290 291 292 291 291 292 292 291 291 292 293
287 287 287 287 287 287 287 287 287 287 288 288 289 290 290 290 290 291 291 290 290 290
286 286 285 285 285 286 286 286 285 286 286 287 287 288 289 289 290 291 291 291 290 289
285 284 283 283 284 285 285 285 285 285 285 285 285 287 287 288 288 288 288 289 290 289
284 282 282 283 283 284 283 283 284 284 284 284 283 285 286 287 287 286 287 288 288 285
282 282 282 282 283 282 282 282 282 283 284 284 284 284 285 286 286 286 285 285 285 286

GFSNIL_sfc_thetae_081.txt.gz
Theta_e
319 319 318 318 318 317 317 316 315 314 315 316 317 318 319 317 317 317 316 314 314 313
309 309 309 309 310 309 310 307 308 310 310 310 311 312 312 313 313 315 315 315 314 312
305 306 306 306 305 305 305 305 305 305 306 306 307 308 308 309 310 310 310 311 312 312
302 302 302 301 301 301 302 301 301 301 302 302 303 304 304 305 305 305 306 307 307 307
299 299 299 298 298 299 298 299 299 299 299 299 300 300 300 300 301 301 301 303 303 302
297 296 296 296 296 296 296 297 297 297 296 296 297 297 298 298 298 299 299 300 300 301
295 294 294 294 294 294 294 294 294 294 294 295 295 295 296 295 295 296 297 297 297 297
293 292 292 292 292 292 292 292 292 291 291 292 292 293 292 291 291 292 293 293 293 293
290 290 290 289 289 289 289 289 289 289 289 288 290 291 291 290 289 289 290 290 291 291
288 288 288 287 287 287 287 288 287 287 287 287 288 290 290 289 288 288 289 289 289 289
287 286 286 285 285 286 286 286 286 286 286 286 286 289 289 288 287 287 288 288 289 288
285 284 284 282 284 285 285 284 284 285 284 284 285 287 288 287 285 286 286 287 287 287
284 282 282 283 283 284 284 283 284 283 284 284 284 287 287 287 285 284 285 286 286 286
282 281 282 282 283 283 283 283 282 282 283 284 285 285 287 287 285 284 284 285 285 284

GFSNIL_sfc_thetae_084.txt.gz
Theta_e
317 317 315 313 311 308 306 304 304 305 306 306 307 307 308 307 308 310 309 311 310 311
303 303 302 302 302 302 301 302 301 302 301 302 303 304 304 304 304 304 304 304 305 307
299 299 299 298 297 298 298 298 298 298 298 298 299 300 300 300 301 301 301 302 301 302
296 296 296 295 295 295 295 296 295 296 296 296 296 296 296 296 297 297 297 298 298 299
294 294 293 292 293 293 293 294 294 294 294 294 294 295 294 294 294 294 294 295 295 297
292 291 291 291 292 292 291 292 292 292 292 292 293 292 293 293 293 292 293 294 294 294
289 290 290 290 290 290 290 290 289 290 290 290 290 290 291 290 289 289 290 291 292 292
289 289 288 287 287 287 286 287 287 287 286 287 288 289 289 287 287 286 287 287 288 289
286 285 284 284 284 284 284 284 284 284 284 284 287 290 290 289 286 285 284 285 286 287
284 283 283 283 283 283 283 283 283 283 283 283 283 288 289 289 286 284 284 284 285 285
283 281 282 282 282 282 282 282 282 282 281 281 282 287 288 288 285 284 283 284 284 285
281 279 279 277 279 280 280 279 278 280 278 277 281 286 287 287 284 283 284 284 285 285
280 276 276 279 278 278 277 281 281 280 279 278 279 284 287 287 283 283 283 284 285 285
277 275 276 276 275 274 276 278 278 279 279 277 278 280 287 288 285 283 283 283 283 285

GFSNIL_sfc_thetae_087.txt.gz
Theta_e
316 314 309 309 306 304 301 300 301 301 301 302 302 302 302 302 302 302 301 302 302 307
303 302 299 299 299 298 298 298 297 297 297 297 298 298 298 298 298 298 298 298 299 299
297 296 296 295 294 294 295 295 294 294 294 294 295 295 295 294 295 295 295 296 295 295
293 293 293 293 292 293 293 293 292 293 292 292 292 292 292 292 293 292 292 292 292 293
292 291 291 290 291 291 290 291 291 290 290 290 290 290 290 290 291 290 290 290 291 291
290 290 289 289 289 289 289 289 288 288 288 288 289 288 289 290 288 288 288 289 288 289
288 288 287 287 287 287 287 287 286 286 286 287 287 287 287 288 287 287 287 287 287 287
286 286 286 285 284 284 284 285 285 285 284 284 285 286 286 286 285 284 285 284 284 285
284 283 283 283 283 283 283 283 283 282 282 282 284 287 288 288 284 284 283 283 283 283
283 282 282 282 282 282 281 281 281 281 281 281 281 286 288 288 284 283 283 282 282 283
282 281 281 281 280 280 280 280 280 280 280 280 281 286 287 287 283 282 282 283 284 284
281 279 278 276 277 279 278 278 277 279 277 275 278 284 286 286 282 282 282 282 284 284
279 275 275 277 275 277 276 278 278 279 276 275 275 282 285 286 282 279 281 282 284 285
276 274 275 274 274 273 271 273 269 274 275 273 275 276 285 286 283 281 281 283 283 284

GFSNIL_sfc_thetae_090.txt.gz
Theta_e
317 315 312 309 306 303 302 301 299 298 298 298 298 297 298 297 297 296 296 295 296 297
305 304 302 300 299 298 295 295 295 294 294 294 294 295 294 294 294 293 292 292 292 293
299 298 296 295 293 293 293 293 292 292 292 291 291 291 292 291 292 290 290 291 290 290
293 292 292 292 291 291 291 291 290 290 290 289 289 289 289 289 289 287 287 288 288 288
291 290 290 289 289 289 289 289 288 288 287 287 287 287 287 288 286 286 285 286 286 286
289 288 287 287 288 288 287 286 286 286 285 285 286 285 286 286 286 285 285 285 285 285
286 286 286 286 286 286 285 285 284 284 284 284 284 284 285 285 285 284 285 286 285 284
285 285 285 284 283 283 283 283 283 282 282 282 283 284 284 284 283 283 283 283 283 283
284 283 282 282 282 282 281 281 281 281 281 281 283 286 288 286 283 283 282 282 282 283
282 282 282 281 281 281 280 280 280 280 280 280 280 285 287 287 283 282 281 281 282 282
281 280 280 280 280 280 280 280 280 280 279 279 280 284 286 287 283 282 281 281 281 281
280 279 278 277 277 279 278 277 276 279 275 274 277 283 285 285 281 282 281 282 281 281
279 276 276 278 276 277 275 277 278 277 275 274 273 281 284 284 279 277 280 280 282 283
276 276 276 275 275 272 271 273 268 272 273 272 272 274 282 283 280 279 279 279 280 283

GFSNIL_sfc_thetae_093.txt.gz
Theta_e
322 320 317 315 311 305 303 301 300 298 296 295 295 295 295 294 294 292 291 291 290 292
312 310 305 302 302 300 298 296 294 293 292 292 292 292 292 291 289 289 289 288 288 288
303 302 299 299 296 295 293 292 291 290 290 289 289 290 290 288 288 286 286 287 286 286
297 295 295 294 292 290 290 289 289 288 288 287 287 287 287 287 285 285 284 285 285 284
293 292 291 289 289 289 288 288 287 287 286 286 285 285 285 284 284 283 283 284 283 283
290 289 288 288 287 287 286 286 285 285 284 284 284 284 284 284 284 283 283 283 283 283
287 287 287 286 286 286 285 284 283 283 283 283 282 283 283 284 283 283 283 284 283 282
285 285 285 284 284 283 283 282 282 281 281 281 282 284 283 283 282 282 282 282 282 282
284 283 283 283 282 282 281 281 281 280 280 280 281 286 287 285 282 282 281 281 281 282
283 282 282 282 281 281 280 280 280 280 280 279 279 285 286 287 283 282 281 281 282 282
282 282 281 280 280 279 279 279 279 279 279 278 279 284 286 286 282 281 281 281 281 281
282 280 278 278 277 279 278 277 276 278 274 273 275 283 284 284 280 281 280 281 281 280
280 278 277 278 277 277 276 277 277 276 273 273 271 280 283 283 279 273 278 278 280 281
277 276 276 276 275 274 273 273 271 273 273 273 273 274 281 282 279 277 274 275 277 279

GFSNIL_sfc_thetae_096.txt.gz
Theta_e
323 323 321 320 317 312 307 303 301 299 297 295 294 294 293 291 290 289 288 287 288 288
321 317 313 309 307 304 301 298 296 295 291 291 291 291 289 288 287 287 286 286 286 286
313 308 306 304 300 298 296 294 293 289 289 288 289 289 287 286 285 285 285 285 284 284
303 302 301 298 296 295 293 291 289 288 287 286 286 286 285 284 284 283 283 283 283 283
298 297 295 294 293 292 290 288 287 286 285 284 284 284 284 283 283 282 282 282 282 281
294 294 293 291 289 288 286 285 285 284 283 283 283 283 283 283 283 283 283 282 282 281
292 291 290 288 286 285 284 284 283 283 282 282 282 283 283 283 283 282 282 283 282 282
288 288 287 285 284 283 283 282 282 281 281 281 282 284 283 283 282 282 281 282 282 282
286 284 284 283 283 282 282 281 281 281 280 280 282 287 287 284 282 282 281 281 281 281
284 283 283 282 282 281 280 280 280 280 280 279 280 286 287 286 282 282 281 281 282 282
283 282 281 280 280 280 279 279 279 279 279 278 281 285 286 285 282 281 281 281 281 280
282 281 280 279 279 279 279 277 277 278 275 276 277 284 285 283 280 281 280 281 281 280
282 281 280 279 279 278 277 277 277 277 274 274 274 282 283 282 280 276 278 279 279 281
279 279 279 278 277 276 276 274 272 274 274 274 275 277 281 282 280 278 276 275 276 278

GFSNIL_sfc_thetae_099.txt.gz
Theta_e
326 325 325 323 320 317 315 310 305 302 301 300 298 297 296 295 294 293 293 292 292 291
325 325 322 321 318 312 306 302 300 298 296 296 295 293 292 292 291 291 290 290 290 290
323 321 318 313 308 305 300 298 295 294 293 293 292 290 290 289 289 289 288 288 287 287
313 312 310 308 304 301 297 295 292 292 291 290 289 288 288 288 287 286 287 286 286 286
307 305 304 301 299 297 294 292 290 289 289 288 288 287 287 286 286 286 285 285 285 284
301 301 299 296 294 293 291 289 288 287 287 286 286 286 286 286 286 285 285 285 284 284
298 297 295 293 291 290 289 287 286 286 285 285 285 285 285 285 285 285 285 285 285 284
293 292 291 289 289 287 287 285 285 284 284 284 285 285 285 285 284 284 284 284 284 284
289 288 288 286 285 285 284 283 283 283 282 283 285 288 287 285 284 283 283 283 283 284
287 286 286 285 284 282 282 282 281 281 282 282 284 288 288 286 284 283 283 283 283 283
286 285 283 283 282 281 281 281 281 280 281 281 284 288 287 285 283 283 282 282 282 282
285 284 282 282 280 280 280 280 279 280 279 281 282 286 286 283 282 281 281 282 282 281
285 284 282 281 280 279 280 279 279 278 278 277 280 285 285 283 281 280 280 280 280 280
282 282 282 280 279 279 278 278 277 276 275 276 278 282 284 283 281 280 279 278 278 279

GFSNIL_sfc_thetae_102.txt.gz
Theta_e
332 332 332 331 331 327 324 320 316 313 309 307 305 303 304 304 301 300 299 297 296 295
331 331 331 331 332 327 323 312 309 307 304 302 300 299 300 299 296 296 296 295 295 294
328 328 329 329 326 321 314 308 303 301 299 297 297 296 297 296 295 294 293 293 293 292
325 325 325 323 320 317 306 305 300 298 296 294 294 295 294 293 293 292 291 291 291 290
321 318 315 314 311 306 304 301 297 295 294 292 293 293 292 290 290 290 290 290 289 288
312 311 311 308 304 302 299 298 293 292 291 292 292 291 291 290 290 290 290 289 288 288
310 310 306 304 301 298 295 294 291 292 290 291 291 290 289 289 289 289 289 289 288 288
304 303 301 297 297 294 292 292 289 289 289 290 289 288 288 288 288 288 287 287 287 287
297 293 293 291 290 288 288 287 287 287 286 288 286 289 289 288 287 287 286 286 286 286
292 291 290 288 286 287 286 286 286 285 286 286 287 289 288 287 286 286 286 285 285 284
290 288 286 286 287 284 284 284 283 285 286 286 287 289 288 286 286 286 285 285 285 284
289 286 285 284 283 283 283 282 283 284 284 285 286 289 288 286 285 283 283 283 283 283
288 287 285 284 283 283 283 283 282 282 284 285 285 288 287 285 284 283 282 282 281 281
287 286 286 284 282 283 282 282 282 281 281 283 285 286 287 285 283 283 282 281 280 281

GFSNIL_sfc_thetae_105.txt.gz
Theta_e
333 333 333 333 332 330 328 326 327 324 321 318 313 309 308 307 306 306 303 300 299 296
333 332 332 333 334 331 330 326 323 320 314 310 307 305 304 301 299 301 300 298 297 296
331 332 332 333 332 330 328 321 317 313 310 304 302 301 300 297 298 297 296 296 295 294
329 330 330 330 330 329 325 316 313 309 306 303 298 298 298 296 296 294 293 294 293 292
328 328 327 326 326 323 318 313 312 306 302 298 296 295 295 294 293 292 291 291 291 289
324 324 323 323 319 311 309 306 303 300 299 296 294 293 294 292 292 292 291 290 289 288
318 318 318 315 310 306 303 301 298 299 297 294 293 292 291 291 290 290 290 290 290 288
314 312 307 303 301 299 298 298 296 295 292 291 291 290 289 289 289 289 288 288 287 288
306 301 299 297 294 292 292 291 292 289 289 288 289 291 291 289 288 287 286 286 286 286
294 293 292 291 291 289 288 289 287 288 287 286 286 291 290 289 287 286 286 286 285 284
293 291 288 288 288 288 287 286 286 285 286 286 286 290 289 287 286 286 286 285 285 284
291 288 287 287 286 285 284 284 285 285 286 286 286 290 288 286 285 284 284 284 284 284
290 288 287 286 285 284 285 284 283 284 285 286 286 289 288 286 285 283 282 282 282 282
288 287 288 286 284 284 284 282 283 283 284 285 286 287 288 287 284 283 282 281 281 281

GFSNIL_sfc_thetae_108.txt.gz
Theta_e
326 327 328 328 328 327 326 326 326 326 326 324 320 316 314 311 310 308 304 299 295 292
328 327 328 329 329 329 327 325 323 323 320 314 311 311 309 308 303 301 298 296 292 291
329 329 329 328 328 328 327 323 320 320 315 310 309 307 304 300 299 298 296 293 291 289
327 328 328 328 328 328 325 322 319 315 310 308 305 304 300 297 296 295 293 292 290 289
323 323 325 326 327 324 324 318 315 310 307 304 303 301 298 296 295 293 290 290 288 287
317 319 321 322 320 316 312 311 309 308 304 302 301 298 297 295 293 291 290 289 288 287
311 314 317 318 314 310 307 306 304 305 303 302 299 297 295 293 291 290 290 288 287 286
308 312 311 309 306 303 301 303 302 300 299 298 296 295 293 291 290 289 288 287 286 286
303 301 301 298 296 295 294 294 294 292 292 292 293 293 292 290 288 287 287 286 284 284
292 292 293 293 292 291 291 290 290 289 288 288 288 292 292 290 287 286 286 285 284 283
290 289 287 288 289 288 288 288 287 287 287 287 286 292 291 289 286 286 285 285 284 283
288 285 287 286 286 286 286 285 285 285 285 285 287 291 290 287 285 284 284 284 284 283
286 286 287 286 285 283 284 284 284 284 285 285 286 290 289 287 285 284 283 282 282 283
283 284 286 285 283 284 284 283 283 284 285 286 287 288 289 287 284 283 281 281 280 282

GFSNIL_sfc_thetae_111.txt.gz
Theta_e
321 321 322 324 325 325 326 326 327 325 325 323 322 321 320 320 319 315 312 309 302 299
322 321 322 324 326 326 327 326 326 324 324 323 321 320 318 318 314 313 308 304 298 295
324 323 323 324 325 326 326 325 323 322 322 322 318 314 312 309 305 304 300 298 294 292
326 326 325 324 325 326 323 323 321 321 320 317 314 311 311 308 303 302 296 293 293 291
324 324 324 325 325 324 322 323 323 320 317 314 311 309 308 304 302 300 295 292 290 290
316 319 322 324 325 323 322 323 320 316 314 310 308 306 306 304 300 298 296 293 291 289
307 311 315 316 314 313 313 312 312 313 312 309 306 305 304 302 298 296 296 293 290 289
302 307 308 309 308 307 306 307 306 304 303 302 302 302 300 298 296 294 291 290 289 288
299 299 299 299 298 298 298 298 298 297 297 298 300 297 296 295 294 290 289 288 286 286
293 295 294 293 294 293 293 292 292 292 291 291 292 294 294 292 291 289 289 287 286 284
290 289 289 291 291 290 290 290 289 289 289 289 288 293 293 290 287 287 287 286 286 285
289 284 288 287 288 289 288 286 286 285 286 286 286 292 292 289 286 285 285 285 285 285
286 283 287 287 285 284 284 285 284 284 285 285 286 291 291 288 285 285 284 284 284 284
282 285 286 286 283 284 284 283 284 284 284 285 286 287 290 289 285 285 284 283 282 283

GFSNIL_sfc_thetae_114.txt.gz
Theta_e
323 322 322 320 321 321 322 323 324 324 324 322 321 320 319 319 318 318 318 317 313 309
321 322 321 321 321 322 323 323 324 323 323 323 321 320 319 318 317 317 317 316 312 308
319 320 321 321 320 321 323 323 322 322 322 322 321 320 319 318 319 316 314 312 306 302
321 320 320 320 320 321 323 323 322 322 322 321 321 321 319 319 317 311 312 302 303 302
324 323 321 320 320 321 322 323 323 322 321 320 321 320 316 316 312 309 308 303 298 296
315 320 322 323 322 322 322 322 320 321 320 319 319 316 314 315 311 308 308 305 298 295
305 309 312 314 316 318 320 321 320 320 320 318 315 312 311 310 308 305 304 302 300 298
298 301 304 305 307 308 309 311 311 310 309 309 307 307 307 307 305 303 300 297 296 295
297 297 299 299 297 297 297 298 298 296 296 298 301 299 298 299 299 296 293 291 290 288
292 294 293 293 293 293 293 293 293 293 293 293 293 294 295 293 292 291 290 289 287 286
291 290 290 292 291 289 289 290 290 291 290 290 290 293 294 291 290 288 288 287 287 286
288 284 287 288 289 290 288 287 287 286 287 286 287 291 293 290 286 286 285 285 286 286
285 283 288 287 286 284 285 285 284 285 285 285 286 290 292 289 285 285 284 284 284 285
283 286 286 286 284 284 284 284 285 284 284 285 285 287 291 289 285 285 283 283 283 284

GFSNIL_sfc_thetae_120.txt.gz
Theta_e
325 324 324 324 322 320 320 320 320 318 319 319 319 319 318 318 317 317 316 316 315 316
324 324 324 323 323 322 321 321 319 319 319 319 319 318 318 318 317 317 316 316 316 316
322 323 324 323 322 322 322 320 317 317 318 319 319 318 318 319 319 318 317 317 316 316
320 321 321 321 321 321 319 318 317 317 318 318 318 318 319 319 319 318 317 317 316 315
317 317 318 319 320 318 318 317 317 317 317 317 318 319 318 318 318 317 317 317 316 315
311 312 314 315 315 314 315 315 315 317 317 318 318 319 319 319 319 318 317 317 316 314
308 310 312 314 314 314 315 316 316 317 318 318 318 318 319 318 318 317 316 313 310 309
296 297 298 300 302 302 304 307 309 311 310 309 309 306 307 307 306 305 304 301 299 297
294 295 297 297 296 296 296 297 296 296 295 296 298 295 296 297 299 297 295 294 292 292
291 292 292 292 292 291 292 292 291 292 292 292 292 294 295 293 294 293 293 291 289 288
289 289 290 291 291 291 290 289 288 287 287 287 288 292 293 291 290 290 289 289 288 288
288 287 289 288 288 288 287 286 286 285 285 284 285 291 292 288 286 286 285 286 287 287
287 288 287 287 286 285 285 284 285 285 285 285 286 291 291 287 285 285 284 284 284 285
285 286 286 285 285 285 285 285 285 285 285 285 285 287 290 289 284 282 282 279 280 282

GFSNIL_sfc_thetae_123.txt.gz
Theta_e
326 326 325 325 323 321 320 320 321 319 320 320 320 320 320 320 319 320 318 318 318 319
325 326 325 326 326 324 323 323 321 320 319 320 320 320 319 319 319 318 319 318 318 317
323 325 326 326 324 325 324 322 319 319 319 319 320 320 319 319 319 318 318 318 317 316
321 323 324 324 324 323 323 321 320 319 319 319 319 319 319 319 319 318 317 318 317 316
319 320 320 321 322 320 320 320 320 319 318 318 318 319 318 318 318 317 316 317 316 315
314 316 318 319 320 319 319 318 318 318 317 317 317 317 318 318 318 317 317 317 316 316
309 311 313 314 314 314 315 316 316 316 317 317 317 317 318 317 317 317 315 312 309 306
296 298 300 302 303 303 304 306 307 311 310 307 304 302 305 307 306 304 303 299 299 297
295 297 299 298 298 297 298 298 297 296 297 297 297 295 296 299 300 298 297 295 293 292
292 292 293 293 292 292 293 293 292 293 293 292 293 295 294 294 296 294 295 292 291 289
291 290 291 291 291 290 290 290 290 289 290 290 290 293 294 291 293 292 291 291 290 290
289 288 289 289 290 289 289 288 287 287 286 286 287 292 292 289 288 287 286 287 288 288
288 288 289 288 287 285 286 285 285 285 285 285 286 291 290 287 286 285 285 286 286 286
286 287 287 286 286 286 286 286 285 285 285 285 286 289 290 289 286 285 284 284 284 285

GFSNIL_sfc_thetae_126.txt.gz
Theta_e
329 330 330 329 330 329 328 327 327 327 326 326 326 326 325 325 325 325 324 323 323 323
328 328 329 330 330 330 328 328 327 326 325 325 325 325 324 324 323 323 323 322 321 320
325 327 329 330 329 330 330 328 327 326 324 324 325 324 324 323 322 321 320 320 319 318
324 325 326 327 329 329 330 329 327 326 325 324 324 324 322 321 321 319 319 319 317 317
323 324 325 325 326 328 327 327 327 326 324 324 323 324 321 319 319 318 317 317 317 316
321 322 323 324 325 325 326 325 325 324 323 323 323 322 322 321 319 318 318 318 317 317
318 319 321 322 323 323 323 323 322 322 322 322 322 321 320 319 318 318 318 317 317 314
310 310 311 312 313 313 313 317 319 318 317 317 316 313 315 315 315 314 308 302 301 300
300 301 303 304 303 302 301 302 301 301 302 302 300 296 298 302 303 301 299 297 295 294
298 298 299 298 295 295 297 297 295 296 296 295 296 295 295 295 301 299 298 295 294 293
294 295 295 295 294 293 293 293 292 293 294 293 292 294 294 292 297 295 294 293 294 293
293 292 293 292 293 292 291 290 289 289 289 289 290 292 292 291 291 289 288 289 290 290
290 290 291 291 289 288 289 286 287 287 287 286 289 291 290 290 290 287 287 287 287 287
289 289 291 289 288 287 287 287 286 286 286 287 288 290 290 289 288 288 287 288 287 288

GFSNIL_sfc_thetae_129.txt.gz
Theta_e
330 331 331 330 330 330 329 329 330 329 329 328 328 328 328 327 325 325 324 323 322 321
328 329 329 330 331 331 331 330 330 329 328 328 328 327 327 325 324 324 324 323 323 322
324 327 328 329 329 330 331 331 329 328 327 327 327 327 326 324 324 323 322 321 321 320
324 325 326 326 328 329 330 330 329 327 326 325 325 325 324 323 322 320 320 320 318 317
320 323 324 324 326 327 328 329 328 326 324 324 323 324 323 321 320 319 318 318 317 316
319 321 322 323 324 324 323 324 324 324 323 322 323 323 322 321 320 319 318 318 317 316
319 321 322 323 322 321 322 322 322 322 322 322 322 322 322 321 319 319 318 318 317 316
315 317 317 318 318 317 316 317 318 318 319 319 318 317 319 318 317 316 316 311 308 306
304 305 307 309 306 303 303 303 302 302 303 307 304 296 297 303 308 305 304 302 298 296
300 300 301 299 297 295 298 297 295 296 296 295 295 296 295 295 301 300 299 296 293 290
294 294 295 295 294 293 293 294 293 293 293 292 291 294 294 293 296 293 292 291 291 290
293 292 293 292 294 294 292 290 290 289 288 288 289 293 293 292 290 288 287 288 289 289
291 290 292 292 290 288 288 286 286 286 287 286 287 291 291 291 288 287 287 286 286 287
289 288 291 289 287 287 286 286 285 285 286 287 287 289 290 290 287 287 287 286 286 286

GFSNIL_sfc_thetae_132.txt.gz
Theta_e
324 327 328 328 327 326 325 326 327 327 327 326 325 325 324 323 323 322 321 319 319 319
322 323 325 327 328 327 326 327 326 325 325 325 325 324 324 324 323 323 322 321 320 319
316 320 323 325 325 326 326 326 324 324 324 324 324 324 324 324 324 323 322 322 321 320
313 317 319 321 323 324 324 324 324 324 324 323 323 323 322 323 323 321 321 321 320 319
310 314 317 318 319 320 322 323 323 324 324 324 323 323 322 322 321 320 319 319 319 318
312 312 314 316 318 319 319 320 321 323 322 323 322 322 321 321 320 319 318 318 317 317
311 314 315 316 317 319 319 319 320 321 321 321 321 321 321 320 319 318 317 317 316 316
302 310 309 308 310 309 309 311 311 314 316 317 317 317 318 318 317 316 315 312 313 311
299 298 300 301 300 301 301 302 301 301 301 303 303 296 297 300 309 308 307 306 300 295
295 294 295 294 294 294 296 296 295 296 296 296 295 296 295 295 301 302 301 298 294 291
290 289 289 290 292 292 293 292 292 292 293 292 291 294 294 294 296 294 293 292 291 290
288 288 290 289 291 292 290 289 289 288 287 287 288 293 293 291 288 288 287 287 289 289
288 288 289 290 289 287 286 285 285 285 285 285 286 291 292 290 287 286 285 285 286 287
287 288 289 288 286 286 286 285 285 285 285 285 286 288 291 291 286 286 285 285 285 286

GFSNIL_sfc_thetae_135.txt.gz
Theta_e
319 323 325 327 328 327 326 326 327 327 327 326 325 324 323 323 322 322 321 319 318 318
311 318 321 324 327 327 327 326 326 326 326 326 326 324 323 323 322 322 321 321 320 319
307 311 317 321 323 325 326 326 324 324 325 325 325 325 323 323 323 322 322 322 321 320
306 309 311 315 320 322 324 322 322 322 323 324 324 324 323 323 323 322 322 322 321 320
306 310 311 312 315 318 319 320 320 321 323 323 324 324 323 322 322 321 320 320 320 319
301 306 311 314 314 315 316 317 318 321 321 322 322 322 322 322 321 321 321 320 318 318
299 301 306 311 311 313 315 317 317 318 319 320 320 321 321 320 320 320 319 319 318 317
297 299 300 301 303 304 306 307 308 308 309 312 315 314 317 318 318 318 317 314 315 315
292 293 296 296 296 296 298 300 301 300 301 302 303 296 297 299 308 309 309 311 309 298
287 287 289 291 291 293 294 295 295 295 296 296 297 295 295 294 300 302 303 302 297 292
285 285 287 288 288 289 293 292 292 293 293 293 292 294 294 294 297 295 294 294 292 291
283 284 285 286 288 290 291 290 290 289 288 288 290 293 293 292 289 288 287 288 289 290
281 282 284 286 288 289 288 287 286 286 286 286 287 291 292 291 286 286 285 285 286 287
278 281 284 286 287 288 287 286 285 285 285 286 286 287 291 292 287 287 286 285 285 286

GFSNIL_sfc_thetae_138.txt.gz
Theta_e
306 312 316 320 323 326 327 327 328 327 327 326 325 324 323 322 322 322 321 320 320 319
304 305 307 312 316 321 327 328 327 326 326 326 326 325 324 323 322 322 321 321 320 320
302 304 307 310 312 315 321 325 326 325 324 325 326 326 325 323 323 322 322 321 320 320
299 301 304 308 312 313 316 320 323 324 323 324 324 325 325 324 323 321 321 321 320 320
296 299 300 301 307 312 314 316 318 321 321 322 322 323 323 323 322 321 320 321 320 320
293 295 295 297 301 303 307 312 315 316 317 318 320 321 322 322 322 322 321 321 320 320
291 291 291 293 295 297 300 304 309 310 313 316 318 319 320 320 321 321 321 321 320 320
289 289 288 289 290 292 294 297 300 303 305 307 309 310 306 314 318 318 318 317 317 318
286 285 286 287 288 289 290 293 294 296 297 298 302 298 296 296 303 306 308 312 311 310
283 281 282 285 286 287 289 291 292 293 294 294 296 296 295 294 296 299 303 303 301 296
277 277 279 281 284 286 288 289 290 292 293 293 293 294 294 293 295 296 296 296 296 294
275 275 276 278 281 284 286 288 289 290 290 289 290 292 293 293 290 289 290 289 290 292
273 274 274 275 278 283 286 286 288 288 288 287 287 290 292 292 287 287 287 286 287 286
271 272 272 275 278 281 285 286 287 287 287 286 286 287 290 292 288 287 287 286 286 286

GFSNIL_sfc_thetae_141.txt.gz
Theta_e
300 302 304 306 308 311 315 321 327 326 326 326 325 325 323 323 322 322 321 320 320 319
298 299 300 303 308 310 313 316 320 326 326 326 326 326 325 323 322 322 322 321 321 320
295 297 299 300 301 304 310 312 314 318 323 324 325 325 325 324 324 322 322 321 320 320
293 295 296 295 296 299 302 304 307 312 316 321 322 324 324 324 324 322 321 322 321 320
289 292 290 290 292 294 296 298 300 305 311 316 319 321 322 322 323 322 321 321 320 320
287 288 288 287 289 291 291 293 295 298 301 306 312 317 319 320 321 321 322 321 320 320
284 285 286 285 286 288 289 290 292 294 296 299 303 307 312 314 317 319 320 321 320 320
281 282 282 282 283 284 287 289 290 292 293 294 296 299 301 302 304 306 309 316 318 319
278 277 278 279 279 281 283 287 289 290 291 292 294 295 295 295 297 298 301 304 307 308
275 275 275 276 277 278 280 283 286 288 290 291 293 294 294 293 295 295 296 298 300 299
273 273 274 274 275 276 277 279 283 287 288 289 291 293 293 292 293 294 294 295 295 295
271 271 272 272 273 274 275 278 281 285 286 287 288 291 292 292 290 289 289 290 291 292
270 270 270 271 272 273 275 277 280 283 286 287 287 290 291 291 288 287 288 289 288 287
269 269 270 271 272 272 273 276 279 283 286 287 288 288 290 291 288 287 287 287 288 288

GFSNIL_sfc_thetae_144.txt.gz
Theta_e
296 297 298 299 301 304 307 310 312 314 316 323 325 324 324 323 322 322 321 320 319 319
293 294 295 295 296 297 300 302 304 306 310 314 320 324 324 323 322 322 322 321 321 320
290 292 292 291 290 292 294 296 297 299 302 306 313 318 322 323 323 322 322 322 321 321
288 288 290 288 288 289 290 291 293 294 297 301 305 310 315 318 321 321 321 321 321 320
285 285 285 286 285 286 287 289 290 293 293 296 298 301 305 309 316 318 319 320 320 319
282 281 281 281 282 283 284 286 288 290 292 293 294 296 299 302 307 306 309 315 318 319
279 278 278 279 280 281 281 282 285 288 290 292 292 294 295 297 297 298 300 304 307 311
277 276 276 277 277 278 279 280 282 284 287 290 291 292 293 293 294 294 295 297 300 303
275 275 275 275 276 276 277 277 278 280 283 286 289 291 292 293 293 294 293 294 296 298
273 273 273 274 274 274 275 276 276 278 282 284 286 290 291 291 291 292 293 294 294 295
272 271 272 272 272 272 273 274 275 277 279 281 284 288 289 290 290 291 292 293 293 293
270 270 271 271 271 272 273 273 275 277 279 280 282 287 288 290 289 288 289 290 291 291
269 269 269 270 271 272 273 275 277 278 281 283 284 287 289 290 288 287 288 289 288 287
268 269 270 271 271 272 273 275 276 279 280 281 282 284 288 290 288 287 287 287 288 288